sat.trackr.live / text

‹ back to catalog

FLOCK 4H-6

NORAD 66709 · 2025-276AV

PAYLOAD ACTIVE UNKNOWN

§ Identity

Operator
Country
US
Launch date
2025-11-28
Launch site
AFWTR
Launch vehicle
Mass (kg)
RCS (m²)

Purposes: earth_obs

External: N2YO · Heavens-Above · Gunter

§ Orbital elements

Epoch: 2026-05-25T04:12:35.697888Z

Period
94.74 min
Inclination
97.4233°
Eccentricity
0.0004532
Mean motion
15.19980266 rev/d
Perigee alt
502.8 km
Apogee alt
509.0 km
Semi-major
6,884.0 km
B*
2.4526e-4
RAAN
219.2801°
Arg perigee
68.7938°
Mean anomaly
291.3781°
Rev number
2,693

§ Raw data

FLOCK 4H-61 66709U 25276AV  26145.17541317  .00005213  00000+0  24526-3 0  99992 66709  97.4233 219.2801 0004532  68.7938 291.3781 15.19980266 26934

JSON: /api/v1/satellites/66709 · /tle

For live sub-satellite position, see the globe view (requires WebGL).

§ Visibility from observer

Set your observer location to see the next 7 days of passes ≥ 10°. The values pass through the URL so the page stays shareable.

No JS? Fill the form by hand. The geolocation button needs JavaScript.